Location: Rowland
(34.5359°N, 79.2929°W)
Time: 14:20:13
(UTC+00:00)

Transit 4A - Pass Details

Date: 12 October 2022
Orbit: 871 x 972 km, 66.8° (Epoch: 29 November)

Event Time Altitude Azimuth Distance (km) Brightness Sun altitude
Rises 10:20:33 0° 334° (NNW) 3,473 10.6 -13.1°
Reaches altitude 10° 10:23:03 10° 336° (NNW) 2,526 9.9 -12.6°
Maximum altitude 10:28:53 81° 64° (ENE) 886 7.9 -11.4°
Drops below altitude 10° 10:34:42 10° 151° (SSE) 2,518 10.6 -10.2°
Sets 10:37:11 0° 152° (SSE) 3,461 11.3 -9.7°
